星链-30165 (STARLINK-30165 )

导读 | 星芒AI

STARLINK-30165 是 SpaceX Starlink 卫星互联网项目中的一颗低轨卫星。该卫星属于 Starlink 群体部署计划的一部分,旨在为全球用户提供高速互联网接入服务。它运行在约 550 公里的近地轨道上,采用先进通信技术,支持宽带数据传输。该卫星于近期通过 Falcon 9 火箭成功发射入轨,加入 Starlink 网络,提升全球网络覆盖与连接稳定性。其部署有助于缩小数字鸿沟,特别是在偏远地区。

基本信息
目录编号:
57457
目录名称:
STARLINK-30165
国际标识:
2023-107A
轨道中心:
EARTH
卫星名称:
星链-30165
卫星全名:
星链-30165 (STARLINK-30165 )
卫星状态:
在轨 (已飞行874 天)
发射日期:
2023-07-28 UTC
国别 :
美国 (US)
星等 :
--
轨道信息
数据来源 国际轨道数据
星历时间: 2025-12-17T22:40:47+0800
1天前
查看轨道信息
半长轴: 6937.226km
偏心率: 0.0001272
轨道倾角: 43.005°
近地点辐角 270.968°
升交点赤经 65.224°
平近点角 89.102°
近地点: 558.208km
远地点: 559.974km
周期: 95.838分钟
每日圈数: 15.025332
详细信息
固有亮度:
5
最大亮度:
0.3
卫星平台:
Starlink v2.0 mini
覆盖范围:
全球
运营商:
太空探索技术公司
运营商所在国:
美国
制造商(研发单位):
太空探索技术公司
制造商所在国:
美国
使用方式:
暂无
卫星简介
星链(Starlink)计划是由太空探索技术公司(SpaceX)提出的一个巨型低轨卫星互联网星座项目,计划在2019年至2024年间在太空搭建由约1.2万颗卫星组成的“星链”网络,其中1584颗将部署在地球上空550千米处的近地轨道,并从2020年开始工作。该卫星仍在工作。
2D轨道图
3D轨道图
轨道高度分析图
轨道倾角分析图
轨道综合分析图
查看轨道综合分析图